FREGAT R/B, 44116

Orbit data source: Space-Track

FREGAT R/B, 44116 is space debris originally from a launch on Thu, 04 Apr 2019 UTC launched from the French Guiana (FRGUI). Debris objects in space refer to the collection of defunct objects orbiting the Earth. Examples of debris include non-operational satellites, rocket bodies, and fragments generated from explosions, collisions, or faulty payload assembly.

Loading next visibility...
Identifier
44116, 2019-020E
Orbit
Active
Last TLE update
11 hours ago
Origin
Manufacturer
Lavochkin
Mission
Spacecraft
Bus & Motor
FREGAT, Unknown motor
Mass
1,050 kg wet, 1,050 kg dry
Launch date (UTC)
2019-04-04 (6 years ago)
Launch vehicle
Unknown
Launch site
French Guiana (FRGUI)
Object type
Payload
Rocket body
Debris
Shape & HBR
Irr, 3.3 m
Radar Cross Section
11.055 m², Large (>1 m²)

Expand to show TLE details & history

TLE from 11 hours ago
0 FREGAT R/B
1 44116U 19020E   25183.40365639 -.00000019  00000-0  00000-0 0  9994
2 44116   0.1055 354.3690 0006611 256.8320 108.7255  5.21008511118279
Epoch: 2025-07-02T09:41Z
TLE epoch observation values (Epoch: 2025-07-02T09:41:15.912Z)
Latitude
0.00937°
Longitude
-66.00155°
Altitude
7,678.537 km
Speed
5.325 km/s
True Right ascension
00h 00m 00s
True Declination
0° 00' 34"
Sunlit
Object was in daylight at epoch
Visualization orbit readout
Latitude
-0.00194°
Longitude
109.75241°
Altitude
7,673.265 km
Speed
5.327 km/s
Apparent Right ascension
12h 53m 22s
Apparent Declination
-20° 23' 32"
Sunlit
Object is in daylight
Visualization observer readout
Local Sidereal Time
08:53:00
Azimuth
124.916° SE
Elevation
7.751°
Doppler factor
1
Orbital elements
Apogee altitude
7,689.551 km
Perigee altitude
7,670.963 km
Semi-major axis
14,058.394 km
Eccentricity
0.00066
Inclination
0.1055°
RAAN
354.369°
Arg. of periapsis
256.832°
True anomaly
Unknown
Mean anomaly
108.7255°
Eccentric anomaly
Unknown
Mean motion
1.30209 °/min
Orbital period
276.48 mins
BSTAR
0
Loading maneuver chart data...
Loading SW <> Apogee altitude chart data...
Loading historical data...
Loading historical data...
Loading historical data...
Loading historical data...
Loading historical data...
Loading historical data...
Loading historical data...
Other satellites on launch #20 in the year 2019 (2019-04-04 UTC)

FREGAT R/B Visibility forecast

Observer location: undefined°, undefined°

Span
Click to sort rows by Start time (UTC) header in descending order
Start Az.
Max El. time (UTC)
Max El. Az.
Max El.
End time (UTC)
End Az.
73 mins2025-07-03 01:33:51.282Z231.316° WSW2025-07-03 02:10:51.282Z179.516° S23.645°2025-07-03 02:46:51.282Z129.183° SE
72 mins2025-07-03 07:16:51.282Z230.211° WSW2025-07-03 07:52:51.282Z179.547° S23.615°2025-07-03 08:28:51.282Z129.174° SE
72 mins2025-07-03 12:58:51.282Z230.304° WSW2025-07-03 13:34:51.282Z179.727° S23.775°2025-07-03 14:10:51.282Z129.273° SE
73 mins2025-07-03 18:40:51.282Z230.59° WSW2025-07-03 19:16:51.282Z180.078° SSW23.829°2025-07-03 19:53:51.282Z128.471° SE
|